Weather in Memmingen

Germany     47°59′09″N   10°10′34″E
temp.,
°C
wind,
m/s
gust,
m/s
humid.,
%
clouds,
%
prec.,
mm/h
press.,
hPa
HPBL,
m
11 april, sun
sun1123:00+6s2286100 0.0 101332
02:00+5ssw2382100 0.0 101339
05:00+5ssw2270100 0.0 101340
08:00+7s2368100 0.0 101263
11:00+13ne115498 0.0 1010592
14:00+15ene2348100 0.0 10101460
17:00+16nw1248100 0.0 10091190
20:00+9wnw228522 0.3 101133
12 april, mon
mon1223:00+7wnw1599100 0.1 1016250
02:00+7wsw1498100 2.6 1016291
05:00+3nnw4699100 3.6 1019549
08:00+1nw37100100 7.6 1023284
11:00+1nw37100100 3.1 1026293
14:00+1nnw36100100 5.0 1027337
17:00+1nnw3597100 1.5 1027541
20:000nw1498100 2.8 1029244
13 april, tue
tue1323:00−1sse1198100 0.3 103027
02:00−5ssw2199100 0.3 103112
05:00−5ssw1199100 0.0 103111
08:00−2n1196100 0.0 103182
11:00+2ne3488100 0.1 1030711
14:00+4ene3479100 0.8 10291155
17:00+4ne2479100 0.9 1028873
20:00+1nne3892100 1.9 1030272
14 april, wed
wed1423:00−2e119453 0.1 103111
02:00−4sse119685 0.1 103212
05:00−5e119743 0.0 103211
08:00−2ene139526 0.0 1031128
11:00+3ene457956 0.3 1029988
14:00+5ne456795 1.3 10271543
17:00+5nne4569100 0.8 10261218
20:00+1ene2487100 1.4 102780
15 april, thu
thu1523:00−2ene119021 0.0 102810
02:00−5e11934 0.0 102911
05:00−5ene11945 0.0 102912
08:00−2ene14895 0.0 1029139
11:00+3ne456796 0.1 10271370
14:00+5ne346096 0.8 10251523
17:00+5ne5569100 0.8 10251112
20:00+1ne4994100 1.2 1026402